Theta_e
330 328 330 335 334 331 332 337 349 358 359 359 358 359 362 356 355 357 355 360 356 349
329 331 331 339 342 333 339 339 345 355 356 358 359 358 360 355 358 357 358 358 358 353
327 328 332 336 338 343 343 344 344 349 358 360 359 360 361 358 360 360 356 355 357 355
324 326 330 333 336 337 341 343 342 345 350 357 360 361 362 360 358 357 357 356 353 352
323 325 329 330 333 338 340 345 343 344 346 351 356 361 360 356 354 354 352 352 351 348
323 325 328 331 334 333 338 341 341 340 346 349 354 357 358 355 354 354 353 351 348 346
319 325 326 329 332 332 335 337 341 344 345 348 352 354 355 354 355 354 351 350 348 348
319 323 324 326 329 332 335 335 341 341 346 350 353 351 354 354 355 354 351 350 347 346
314 317 322 325 328 331 332 336 345 342 345 350 350 322 323 344 354 352 347 346 346 343
313 315 318 320 325 328 332 338 343 345 349 350 354 313 314 322 354 350 349 347 345 340
313 314 317 320 320 327 332 339 343 346 352 351 350 310 312 317 353 351 349 347 345 344
313 312 312 315 321 324 331 339 344 350 350 349 338 308 311 327 349 346 344 341 340 340
311 311 313 315 317 322 333 340 346 347 348 337 338 307 311 326 342 342 337 340 336 312
312 312 316 316 317 326 337 341 345 345 345 345 336 324 307 310 339 336 334 334 335 333
Wind_Speed
10 10 9 10 10 11 11 11 10 10 12 14 13 14 12 10 11 13 11 13 12 8
11 11 11 13 11 12 12 12 14 14 15 15 16 16 14 11 12 11 12 12 11 10
12 12 12 12 13 13 13 14 16 14 14 15 16 17 16 13 13 12 11 11 12 11
14 14 13 13 13 13 14 13 15 17 15 15 16 17 15 14 14 15 12 12 12 12
16 15 14 14 15 15 16 16 16 17 16 17 17 17 17 17 15 16 14 14 12 12
17 16 15 15 15 17 18 18 18 18 17 18 17 18 18 18 16 16 15 13 12 12
16 17 16 16 17 18 19 19 18 18 19 19 18 19 19 19 16 15 14 13 13 12
17 19 19 19 18 18 19 19 20 19 19 18 17 16 19 18 15 14 14 12 13 10
18 20 20 18 17 18 20 20 20 19 19 20 16 17 17 16 14 15 13 12 12 9
19 19 21 19 20 19 20 22 22 20 21 20 19 20 18 15 14 14 13 13 11 11
18 19 17 18 18 20 19 21 20 20 20 18 15 18 20 16 15 13 14 12 12 10
21 19 19 21 21 20 20 20 19 18 19 20 14 18 21 17 15 14 13 12 12 9
16 17 20 20 22 21 21 20 16 17 19 18 18 15 22 14 13 13 11 11 9 7
17 21 22 20 18 19 20 18 17 18 16 16 18 16 17 12 13 11 11 9 9 8
Wind_Direction
277 273 272 260 261 266 267 260 263 234 224 222 217 223 208 215 209 190 202 218 222 213
276 272 271 276 273 272 271 275 254 240 223 225 217 213 208 216 208 203 188 208 205 230
280 276 273 269 270 266 262 270 278 265 218 212 213 215 204 201 203 203 190 213 197 210
278 278 275 270 269 272 272 255 256 262 251 214 216 211 200 205 200 198 198 200 194 200
287 274 272 270 268 270 269 264 258 252 243 236 215 206 202 200 201 190 200 196 189 196
288 274 274 274 269 265 266 265 258 251 239 233 215 206 201 199 202 190 192 187 192 199
283 280 277 272 269 260 263 263 254 246 242 232 214 205 199 203 197 185 178 185 192 198
287 275 271 264 263 262 260 262 254 244 233 232 212 202 194 197 181 177 174 180 190 190
283 277 273 269 267 266 260 259 250 237 233 223 209 182 173 185 172 172 175 170 184 146
279 269 264 266 259 261 253 255 243 231 229 215 201 157 157 160 166 169 166 168 175 164
268 265 268 272 274 261 253 251 230 224 223 203 182 158 151 159 161 163 166 170 172 189
268 267 266 266 268 256 255 243 221 219 206 190 158 159 147 166 157 164 165 168 176 181
255 254 257 259 262 255 252 229 211 203 195 173 160 168 152 179 161 156 159 169 149 87
248 247 251 263 256 257 241 211 195 187 173 153 156 162 156 176 155 160 162 152 158 152